Millington, TN

10:36 PM CDT on September 28, 2016 (GMT -0500)
Millington Municipal

Weather History for KNQA - January, 2014

Change the Weather History Date:

Thursday, January 16, 2014

  Actual Average Record
Temperature  
Mean Temperature 38 °F -  
Max Temperature 53 °F 47 °F 57 °F (2015)
Min Temperature 23 °F 30 °F 26 °F (2015)
Degree Days  
Heating Degree Days 27    
Moisture  
Dew Point 24 °F    
Average Humidity 60    
Maximum Humidity 80    
Minimum Humidity 43    
Precipitation  
Precipitation 0.00 in - - ()
Sea Level Pressure  
Sea Level Pressure 29.98 in    
Wind  
Wind Speed 6 mph (South)    
Max Wind Speed 14 mph    
Max Gust Speed -    
Visibility 10 miles    
Events      
Averages and records for this station are not official NWS values.
T = Trace of Precipitation, MM = Missing Value Source: NWS Daily Summary

Daily Weather History Graph

Daily Weather History Graph

Search for Another Location

Airport or City:

Trip Planner

Search our weather history database for the weather conditions in past years. The results will help you decide how hot, cold, wet, or windy it might be!

Date:

Astronomy

Jan. 16, 2014 Rise Set
Actual Time 7:07 AM CST 5:11 PM CST
Civil Twilight 6:39 AM CST 5:38 PM CST
Nautical Twilight 6:08 AM CST 6:10 PM CST
Astronomical Twilight 5:38 AM CST 6:40 PM CST
Moon 5:59 PM CST (1/16) 7:04 AM CST (1/16)
Length of Visible Light 10h 59m
Length of Day
10h 03m
Full, 100% of the Moon is Illuminated
Jan 16
Full
Jan 23
Last Quarter
Jan 30
New
Feb 6
First Quarter
Feb 14
Full

Hourly Weather History & Observations

Time (CST) Temp. Windchill Dew Point Humidity Pressure Visibility Wind Dir Wind Speed Gust Speed Precip Events Conditions
12:50 AM 23.0 °F 18.4 °F 17.6 °F 80% 30.11 in 10.0 mi East 3.5 mph - N/A   Clear
1:50 AM 23.0 °F 18.4 °F 17.6 °F 80% 30.10 in 10.0 mi SE 3.5 mph - N/A   Clear
2:15 AM 24.8 °F 20.5 °F 17.6 °F 74% 30.10 in 10.0 mi SE 3.5 mph - N/A   Partly Cloudy
2:35 AM 24.8 °F 19.1 °F 17.6 °F 74% 30.09 in 10.0 mi SE 4.6 mph - N/A   Mostly Cloudy
2:55 AM 26.6 °F 21.2 °F 17.6 °F 69% 30.07 in 10.0 mi SE 4.6 mph - N/A   Overcast
3:15 AM 26.6 °F 21.2 °F 19.4 °F 74% 30.06 in 10.0 mi SE 4.6 mph - N/A   Mostly Cloudy
3:35 AM 26.6 °F 20.0 °F 17.6 °F 69% 30.07 in 10.0 mi SSE 5.8 mph - N/A   Overcast
3:55 AM 26.6 °F 21.2 °F 19.4 °F 74% 30.07 in 10.0 mi SSE 4.6 mph - N/A   Overcast
4:15 AM 28.4 °F 22.2 °F 17.6 °F 64% 30.06 in 10.0 mi SSE 5.8 mph - N/A   Overcast
4:35 AM 28.4 °F 22.2 °F 17.6 °F 64% 30.06 in 10.0 mi SSE 5.8 mph - N/A   Overcast
4:55 AM 28.4 °F 22.2 °F 17.6 °F 64% 30.05 in 10.0 mi SSE 5.8 mph - N/A   Mostly Cloudy
5:30 AM 30.2 °F 24.3 °F 17.6 °F 60% 30.05 in 10.0 mi SSE 5.8 mph - N/A   Overcast
5:50 AM 30.2 °F 22.6 °F 17.6 °F 60% 30.04 in 10.0 mi SSE 8.1 mph - N/A   Overcast
6:50 AM 30.2 °F 24.3 °F 17.6 °F 60% 30.02 in 10.0 mi SSE 5.8 mph - N/A   Overcast
7:50 AM 32.0 °F 25.6 °F 17.6 °F 55% 30.01 in 10.0 mi South 6.9 mph - N/A   Overcast
8:50 AM 37.4 °F 29.8 °F 17.6 °F 45% 29.99 in 10.0 mi South 11.5 mph - N/A   Mostly Cloudy
9:50 AM 41.0 °F 34.3 °F 21.2 °F 45% 29.98 in 10.0 mi South 11.5 mph - N/A   Mostly Cloudy
10:50 AM 46.4 °F 40.4 °F 24.8 °F 43% 29.93 in 10.0 mi South 13.8 mph - N/A   Mostly Cloudy
11:50 AM 44.6 °F 38.4 °F 26.6 °F 49% 29.90 in 10.0 mi SSW 12.7 mph - N/A   Mostly Cloudy
12:50 PM 48.2 °F - 30.2 °F 50% 29.86 in 10.0 mi SSW 12.7 mph - N/A   Scattered Clouds
1:50 PM 51.8 °F - 30.2 °F 44% 29.84 in 10.0 mi SSW 12.7 mph - N/A   Partly Cloudy
2:50 PM 53.6 °F - 33.8 °F 47% 29.84 in 10.0 mi SW 12.7 mph - N/A   Partly Cloudy
3:50 PM 53.6 °F - 33.8 °F 47% 29.85 in 10.0 mi SSW 10.4 mph - N/A   Scattered Clouds
4:50 PM 53.6 °F - 33.8 °F 47% 29.86 in 10.0 mi SSW 6.9 mph - N/A   Mostly Cloudy
5:52 PM 50.0 °F - 39.2 °F 66% 29.89 in 10.0 mi WSW 11.5 mph - N/A   Mostly Cloudy
6:53 PM 46.4 °F 42.9 °F 37.4 °F 71% 29.90 in 10.0 mi WSW 6.9 mph - N/A   Scattered Clouds
7:53 PM 46.4 °F 42.9 °F 37.4 °F 71% 29.90 in 10.0 mi WSW 6.9 mph - N/A   Scattered Clouds
8:53 PM 44.6 °F 42.2 °F 28.4 °F 53% 29.93 in 10.0 mi West 4.6 mph - N/A   Scattered Clouds
9:50 PM 46.4 °F 45.2 °F 28.4 °F 50% 29.94 in 10.0 mi WSW 3.5 mph - N/A   Clear
10:50 PM 42.8 °F 40.1 °F 26.6 °F 53% 29.93 in 10.0 mi WSW 4.6 mph - N/A   Clear
11:50 PM 39.2 °F 37.0 °F 28.4 °F 65% 29.92 in 10.0 mi WSW 3.5 mph - N/A   Clear